TimeMDT,TemperatureF,Dew PointF,Humidity,Sea Level PressureIn,VisibilityMPH,Wind Direction,Wind SpeedMPH,Gust SpeedMPH,PrecipitationIn,Events,Conditions,WindDirDegrees,DateUTC
12:53 AM,44.1,42.1,93,30.11,9.0,Calm,Calm,-,N/A,,Clear,0,2013-05-10 06:53:00
2:53 AM,43.0,39.9,89,30.11,10.0,Calm,Calm,-,N/A,,Clear,0,2013-05-10 08:53:00
3:53 AM,39.9,37.9,93,30.12,9.0,Calm,Calm,-,N/A,,Clear,0,2013-05-10 09:53:00
4:53 AM,37.9,37.0,97,30.12,7.0,SSW,5.8,-,N/A,,Clear,210,2013-05-10 10:53:00
7:53 AM,50.0,45.0,83,30.14,9.0,WNW,4.6,-,N/A,,Clear,290,2013-05-10 13:53:00
8:53 AM,54.0,46.9,77,30.15,10.0,NW,3.5,-,N/A,,Clear,320,2013-05-10 14:53:00
9:53 AM,59.0,44.1,58,30.14,10.0,Calm,Calm,-,N/A,,Clear,0,2013-05-10 15:53:00
11:53 AM,64.0,37.0,37,30.13,10.0,Calm,Calm,-,N/A,,Clear,0,2013-05-10 17:53:00
12:53 PM,66.9,35.1,31,30.11,10.0,Variable,4.6,-,N/A,,Clear,0,2013-05-10 18:53:00
1:53 PM,68.0,33.1,27,30.09,10.0,Variable,3.5,-,N/A,,Partly Cloudy,0,2013-05-10 19:53:00
2:53 PM,70.0,28.9,22,30.07,10.0,Calm,Calm,-,N/A,,Clear,0,2013-05-10 20:53:00
3:53 PM,64.9,41.0,42,30.10,10.0,North,25.3,31.1,N/A,,Overcast,350,2013-05-10 21:53:00
4:53 PM,61.0,43.0,52,30.14,10.0,North,13.8,19.6,N/A,,Mostly Cloudy,350,2013-05-10 22:53:00
5:53 PM,62.1,42.1,48,30.12,10.0,North,19.6,-,N/A,,Overcast,10,2013-05-10 23:53:00
6:53 PM,61.0,45.0,56,30.12,10.0,NNE,10.4,-,N/A,,Overcast,20,2013-05-11 00:53:00
7:53 PM,55.9,44.1,64,30.11,10.0,West,6.9,-,N/A,,Partly Cloudy,280,2013-05-11 01:53:00
8:53 PM,54.0,43.0,66,30.13,10.0,Calm,Calm,-,N/A,,Clear,0,2013-05-11 02:53:00
9:53 PM,52.0,42.1,69,30.15,10.0,Calm,Calm,-,N/A,,Clear,0,2013-05-11 03:53:00
10:53 PM,50.0,42.1,74,30.14,10.0,WSW,4.6,-,N/A,,Clear,240,2013-05-11 04:53:00
11:53 PM,48.0,43.0,83,30.16,10.0,SW,5.8,-,N/A,,Partly Cloudy,220,2013-05-11 05:53:00